Regional Weather Roundup
Issued by NWS

Home | Current Version | Previous Version | Graphics & Text | Print | Product List | Glossary Off
Versions: 1 2 3 4 5 6 7 8 9 10 11 12 13 14 15 16 17 18 19 20 21 22 23 24 25 26 27 28 29 30 31 32 33 34 35 36 37 38 39 40 41 42 43 44 45 46 47 48 49 50

000
ASUS43 KLSX 230807
RWRMO

WEATHER SUMMARY FOR MISSOURI
NATIONAL WEATHER SERVICE SPRINGFIELD MO
300 AM CDT WED APR 23 2014

NOTE: "FAIR" INDICATES FEW OR NO CLOUDS BELOW 12,000 FEET WITH NO
       SIGNIFICANT WEATHER AND/OR OBSTRUCTIONS TO VISIBILITY.
       CURRENT SKY AND/OR WEATHER CONDITIONS ARE NOT AVAILABLE FOR
       CHILLICOTHE AND FARMINGTON.

MOZ001>031-035>038-043-044-053-054-230900-
...NORTHERN AND WESTERN MISSOURI...

CITY           SKY/WX    TMP DP  RH WIND       PRES   REMARKS
KANSAS CTY INT MOCLDY    56  33  42 E14       29.97F
KANSAS C DTWN  MOCLDY    55  36  48 E6        29.97F
LEE`S SUMMIT   CLOUDY    53  36  52 E9        29.99F
ST JOSEPH      MOCLDY    56  34  43 SE10      29.98F
CHILLICOTHE      N/A     51  34  52 E3        30.03F
KIRKSVILLE     CLEAR     46  32  58 E8        30.04F

$$
MOZ066>068-077>081-088>096-101>105-230900-
...SOUTHWEST MISSOURI...

CITY           SKY/WX    TMP DP  RH WIND       PRES   REMARKS
SPRINGFIELD    CLEAR     52  35  52 E9        29.99F
JOPLIN         CLEAR     51  38  60 E8        29.98S

$$
MOZ032>034-039>042-045>050-055>058-069>072-230900-
...CENTRAL MISSOURI...

CITY           SKY/WX    TMP DP  RH WIND       PRES   REMARKS
COLUMBIA       CLEAR     48  34  58 E8        30.02F
JEFFERSON CITY CLEAR     45  38  76 SE8       30.02F
ROLLA          CLEAR     46  32  58 E3        30.01F
SEDALIA        CLEAR     50  37  61 E6        30.00F
WHITEMAN AFB   CLEAR     51  31  47 E5        30.00S
OSAGE BEACH    CLEAR     45  34  65 E3        30.03F

$$
MOZ051-052-059>065-230900-
...EAST CENTRAL MISSOURI...

CITY           SKY/WX    TMP DP  RH WIND       PRES   REMARKS
ST LOUIS INTL  PTCLDY    53  33  46 NE6       30.04S
SPIRIT OF STL  CLEAR     41  38  89 CALM      30.03F
ST CHARLES     CLEAR     50  33  52 NE10      30.03S

$$
MOZ072>076-082>087-097>100-106>115-230900-
...SOUTH CENTRAL AND SOUTHEAST MISSOURI...

CITY           SKY/WX    TMP DP  RH WIND       PRES   REMARKS
CAPE GIRARDEAU CLEAR     44  39  82 SW3       30.01R
FARMINGTON     CLEAR     45  37  76 CALM      30.04S
POPLAR BLUFF   CLEAR     48  41  76 CALM      30.00S
WEST PLAINS    CLEAR     46  33  60 CALM      30.03S

$$



USA.gov is the U.S. government's official web portal to all federal, state and local government web resources and services.